Location: Unspecified
(44.0704°N, 88.6889°W)
Time: 11:50:04
(UTC+01:00)

CZ-3 Stage 3 - Visible Passes

Search period start: 14 November 2018 00:00
Search period end: 24 November 2018 00:00
Orbit: 378 x 34814 km, 30.3° (Epoch: 13 November)

Date Brightness Start Highest point End Pass type
(mag) Time Alt. Az. Time Alt. Az. Time Alt. Az.
14 Nov 9.7 02:32:10 10° W 04:11:47 20° W 07:34:02 10° WNW visible
14 Nov 8.2 22:09:27 10° SW 00:46:00 60° WSW 07:00:49 34° SW visible
15 Nov 8.0 18:30:37 10° S 01:03:22 71° SSE 03:33:10 37° SE visible
16 Nov 8.5 16:39:13 10° ENE 21:50:35 32° E 23:50:20 10° E visible
17 Nov 9.7 02:20:20 10° W 04:01:03 20° WNW 07:27:13 10° WNW visible
17 Nov 8.1 21:59:02 10° SW 00:34:32 61° WSW 06:53:35 32° SW visible
18 Nov 7.9 18:20:09 10° S 00:51:09 70° SSE 03:25:58 33° SE visible
20 Nov 9.8 02:08:34 10° W 03:50:16 21° WNW 07:19:55 10° WNW visible
20 Nov 8.0 21:48:37 10° SW 00:23:03 61° WSW 06:46:27 30° SW visible
21 Nov 7.9 18:09:42 10° S 00:39:03 70° SSE 03:18:51 28° SE visible
23 Nov 9.9 01:56:52 10° W 03:39:26 21° WNW 07:12:09 10° WNW visible
